Location: ???? ????
(31.2831°N, 45.5190°E)
Time: 04:03:26
(UTC+00:00)

Meteor 1-14 Rocket - Pass Details

Date: 24 February 2021
Orbit: 834 x 918 km, 81.3° (Epoch: 14 April)

Event Time Altitude Azimuth Distance (km) Brightness Sun altitude
Rises 16:21:53 0° 173° (S) 3,444 7.3 -19.9°
Reaches altitude 10° 16:24:23 10° 169° (SSE) 2,497 6.5 -20.4°
Maximum altitude 16:29:51 52° 94° (E) 1,051 4.3 -21.6°
Drops below altitude 10° 16:35:14 10° 19° (NNE) 2,464 6.5 -22.7°
Sets 16:37:41 0° 15° (NNE) 3,396 7.2 -23.2°
